10-07-2023, 00:00:07,    198,    0.0,   12.5,   0.00,   0.00, 1016.7,    0.5, -999.0
10-07-2023, 00:00:17,    197,    0.0,   12.4,   0.00,   0.00, 1016.7,    0.5, -999.0
10-07-2023, 00:00:27,    197,    0.0,   12.4,   0.00,   0.00, 1016.7,    0.5, -999.0
10-07-2023, 00:00:37,    197,    0.0,   12.5,   0.00,   0.00, 1016.7,    0.5, -999.0
10-07-2023, 00:00:47,    198,    0.0,   12.4,   0.00,   0.00, 1016.7,    0.6, -999.0
10-07-2023, 00:00:57,    197,    0.0,   12.4,   0.00,   0.00, 1016.7,    0.4, -999.0
10-07-2023, 00:01:07,    197,    0.0,   12.4,   0.00,   0.00, 1016.7,    0.5, -999.0
10-07-2023, 00:01:17,    197,    0.0,   12.4,   0.00,   0.00, 1016.7,    0.5, -999.0
10-07-2023, 00:01:27,    197,    0.0,   12.4,   0.00,   0.00, 1016.7,    0.4, -999.0
10-07-2023, 00:01:37,    197,    0.0,   12.4,   0.00,   0.00, 1016.7,    0.5, -999.0
10-07-2023, 00:01:47,    197,    0.0,   12.4,   0.00,   0.00, 1016.7,    0.5, -999.0
10-07-2023, 00:01:57,    197,    0.0,   12.4,   0.00,   0.00, 1016.7,    0.6, -999.0
10-07-2023, 00:02:07,    197,    0.0,   12.3,   0.00,   0.00, 1016.7,    0.6, -999.0
10-07-2023, 00:02:17,    197,    0.0,   12.4,   0.00,   0.00, 1016.7,    0.4, -999.0
10-07-2023, 00:02:27,    199,    0.1,   12.5,   0.00,   0.00, 1016.7,    0.4, -999.0
10-07-2023, 00:02:37,    199,    0.0,   12.5,   0.00,   0.00, 1016.7,    0.3, -999.0
10-07-2023, 00:02:46,    199,    0.0,   12.4,   0.00,   0.00, 1016.7,    0.3, -999.0
10-07-2023, 00:02:57,    198,    0.0,   12.4,   0.00,   0.00, 1016.7,    0.6, -999.0
10-07-2023, 00:03:07,    199,    0.0,   12.3,   0.00,   0.00, 1016.7,    0.5, -999.0
10-07-2023, 00:03:16,    198,    0.0,   12.4,   0.00,   0.00, 1016.7,    0.4, -999.0
10-07-2023, 00:03:26,    199,    0.0,   12.4,   0.00,   0.00, 1016.7,    0.4, -999.0
10-07-2023, 00:03:37,    199,    0.0,   12.4,   0.00,   0.00, 1016.7,    0.2, -999.0
10-07-2023, 00:03:47,    199,    0.0,   12.4,   0.00,   0.00, 1016.7,    0.3, -999.0
10-07-2023, 00:03:56,    199,    0.0,   12.3,   0.00,   0.00, 1016.7,    0.6, -999.0
10-07-2023, 00:04:06,    198,    0.0,   12.3,   0.00,   0.00, 1016.7,    0.5, -999.0
10-07-2023, 00:04:17,    199,    0.0,   12.4,   0.00,   0.00, 1016.7,    0.5, -999.0
10-07-2023, 00:04:26,    199,    0.0,   12.4,   0.00,   0.00, 1016.7,    0.6, -999.0
10-07-2023, 00:04:36,    199,    0.0,   12.3,   0.00,   0.00, 1016.7,    0.7, -999.0
10-07-2023, 00:04:46,    199,    0.0,   12.3,   0.00,   0.00, 1016.7,    0.4, -999.0
10-07-2023, 00:04:56,    199,    0.0,   12.5,   0.00,   0.00, 1016.7,    0.4, -999.0
10-07-2023, 00:05:06,    199,    0.0,   12.4,   0.00,   0.00, 1016.7,    0.5, -999.0
10-07-2023, 00:05:16,    199,    0.0,   12.3,   0.00,   0.00, 1016.7,    0.5, -999.0
10-07-2023, 00:05:26,    199,    0.0,   12.4,   0.00,   0.00, 1016.7,    0.6, -999.0
10-07-2023, 00:05:36,    198,    0.0,   12.4,   0.00,   0.00, 1016.7,    0.5, -999.0
10-07-2023, 00:05:46,    198,    0.1,   12.5,   0.00,   0.00, 1016.8,    0.7, -999.0
10-07-2023, 00:05:56,    198,    0.2,   12.5,   0.00,   0.00, 1016.8,    0.4, -999.0
10-07-2023, 00:06:06,    199,    0.0,   12.4,   0.00,   0.00, 1016.7,    0.6, -999.0
10-07-2023, 00:06:16,    202,    0.0,   12.4,   0.00,   0.00, 1016.7,    0.4, -999.0
10-07-2023, 00:06:26,    203,    0.0,   12.4,   0.00,   0.00, 1016.7,    0.6, -999.0
10-07-2023, 00:06:36,    198,    0.0,   12.4,   0.00,   0.00, 1016.7,    0.6, -999.0
10-07-2023, 00:06:46,    198,    0.0,   12.4,   0.00,   0.00, 1016.7,    0.5, -999.0
10-07-2023, 00:06:56,    198,    0.0,   12.4,   0.00,   0.00, 1016.7,    0.6, -999.0
10-07-2023, 00:07:06,    198,    0.0,   12.4,   0.00,   0.00, 1016.7,    0.7, -999.0
10-07-2023, 00:07:16,    198,    0.0,   12.4,   0.00,   0.00, 1016.7,    0.3, -999.0
10-07-2023, 00:07:26,    198,    0.0,   12.3,   0.00,   0.00, 1016.7,    0.0, -999.0
10-07-2023, 00:07:36,    198,    0.0,   12.3,   0.00,   0.00, 1016.7,    0.0, -999.0
10-07-2023, 00:07:46,    198,    0.0,   12.3,   0.00,   0.00, 1016.7,    0.8, -999.0
10-07-2023, 00:07:56,    198,    0.0,   12.3,   0.00,   0.00, 1016.7,    1.1, -999.0
10-07-2023, 00:08:06,    198,    0.0,   12.2,   0.00,   0.00, 1016.7,    1.0, -999.0
10-07-2023, 00:08:16,    198,    0.0,   12.3,   0.00,   0.00, 1016.7,    0.3, -999.0
10-07-2023, 00:08:26,    198,    0.1,   12.3,   0.00,   0.00, 1016.8,    0.6, -999.0
10-07-2023, 00:08:36,    198,    0.6,   12.4,   0.00,   0.00, 1016.8,    0.4, -999.0
10-07-2023, 00:08:46,    198,    0.6,   12.4,   0.00,   0.00, 1016.8,    0.5, -999.0
10-07-2023, 00:08:56,    197,    0.3,   12.4,   0.00,   0.00, 1016.8,    0.8, -999.0
10-07-2023, 00:09:06,    198,    0.0,   12.3,   0.00,   0.00, 1016.7,    0.3, -999.0
10-07-2023, 00:09:15,    197,    0.0,   12.3,   0.00,   0.00, 1016.7,    0.5, -999.0
10-07-2023, 00:09:26,    197,    0.0,   12.3,   0.00,   0.00, 1016.7,    0.5, -999.0
10-07-2023, 00:09:36,    198,    0.0,   12.3,   0.00,   0.00, 1016.7,    0.5, -999.0
10-07-2023, 00:09:45,    198,    0.0,   12.2,   0.00,   0.00, 1016.7,    0.4, -999.0
10-07-2023, 00:09:55,    197,    0.0,   12.3,   0.00,   0.00, 1016.7,    0.3, -999.0
10-07-2023, 00:10:06,    198,    0.0,   12.3,   0.00,   0.00, 1016.7,    0.6, -999.0
10-07-2023, 00:10:16,    198,    0.0,   12.2,   0.00,   0.00, 1016.7,    0.4, -999.0
10-07-2023, 00:10:25,    198,    0.0,   12.2,   0.00,   0.00, 1016.7,    0.6, -999.0
10-07-2023, 00:10:36,    197,    0.1,   12.3,   0.00,   0.00, 1016.8,    0.4, -999.0
10-07-2023, 00:10:46,    197,    0.0,   12.3,   0.00,   0.00, 1016.7,    0.5, -999.0
10-07-2023, 00:10:55,    198,    0.0,   12.3,   0.00,   0.00, 1016.7,    0.3, -999.0
10-07-2023, 00:11:05,    198,    0.0,   12.3,   0.00,   0.00, 1016.7,    0.5, -999.0
10-07-2023, 00:11:16,    198,    0.0,   12.4,   0.00,   0.00, 1016.7,    0.5, -999.0
10-07-2023, 00:11:25,    197,    0.0,   12.4,   0.00,   0.00, 1016.8,    0.5, -999.0
10-07-2023, 00:11:35,    198,    0.0,   12.3,   0.00,   0.00, 1016.8,    0.5, -999.0
10-07-2023, 00:11:45,    197,    0.5,   12.4,   0.00,   0.00, 1016.8,    0.5, -999.0
10-07-2023, 00:11:55,    197,    0.1,   12.4,   0.00,   0.00, 1016.8,    0.6, -999.0
10-07-2023, 00:12:05,    197,    0.0,   12.2,   0.00,   0.00, 1016.7,    0.5, -999.0
10-07-2023, 00:12:15,    198,    0.0,   12.1,   0.00,   0.00, 1016.7,    0.3, -999.0
10-07-2023, 00:12:25,    198,    0.0,   12.3,   0.00,   0.00, 1016.7,    0.5, -999.0
10-07-2023, 00:12:35,    198,    0.3,   12.3,   0.00,   0.00, 1016.8,    0.5, -999.0
10-07-2023, 00:12:45,    198,    0.1,   12.3,   0.00,   0.00, 1016.8,    0.5, -999.0
10-07-2023, 00:12:55,    198,    0.0,   12.3,   0.00,   0.00, 1016.7,    0.1, -999.0
10-07-2023, 00:13:05,    198,    0.0,   12.3,   0.00,   0.00, 1016.7,    0.5, -999.0
10-07-2023, 00:13:15,    198,    0.0,   12.3,   0.00,   0.00, 1016.7,    0.4, -999.0
10-07-2023, 00:13:25,    197,    0.0,   12.3,   0.00,   0.00, 1016.7,    0.6, -999.0
10-07-2023, 00:13:35,    198,    0.0,   12.3,   0.00,   0.00, 1016.7,    1.3, -999.0
10-07-2023, 00:13:45,    198,    0.0,   12.2,   0.00,   0.00, 1016.7,    0.5, -999.0
10-07-2023, 00:13:55,    198,    0.0,   12.3,   0.00,   0.00, 1016.7,    0.0, -999.0
10-07-2023, 00:14:05,    198,    0.0,   12.3,   0.00,   0.00, 1016.7,    0.6, -999.0
10-07-2023, 00:14:15,    198,    0.0,   12.3,   0.00,   0.00, 1016.7,    0.5, -999.0
10-07-2023, 00:14:25,    198,    0.0,   12.3,   0.00,   0.00, 1016.7,    1.2, -999.0
10-07-2023, 00:14:35,    198,    0.0,   12.1,   0.00,   0.00, 1016.7,    0.7, -999.0
10-07-2023, 00:14:45,    198,    0.0,   12.2,   0.00,   0.00, 1016.7,    0.7, -999.0
10-07-2023, 00:14:55,    198,    0.0,   12.2,   0.00,   0.00, 1016.7,    0.7, -999.0
10-07-2023, 00:15:05,    198,    0.0,   12.3,   0.00,   0.00, 1016.7,    0.2, -999.0
10-07-2023, 00:15:15,    198,    0.0,   12.2,   0.00,   0.00, 1016.7,    0.6, -999.0
10-07-2023, 00:15:26,    198,    0.0,   12.3,   0.00,   0.00, 1016.6,    0.5, -999.0
10-07-2023, 00:15:35,    197,    0.0,   12.3,   0.00,   0.00, 1016.7,    0.3, -999.0
10-07-2023, 00:15:45,    197,    0.0,   12.2,   0.00,   0.00, 1016.7,    0.3, -999.0
10-07-2023, 00:15:55,    197,    0.0,   12.3,   0.00,   0.00, 1016.7,    0.1, -999.0
10-07-2023, 00:16:05,    198,    0.0,   12.2,   0.00,   0.00, 1016.7,    0.6, -999.0
10-07-2023, 00:16:14,    197,    0.0,   12.2,   0.00,   0.00, 1016.7,    0.7, -999.0
10-07-2023, 00:16:25,    197,    0.0,   12.2,   0.00,   0.00, 1016.7,    0.5, -999.0
10-07-2023, 00:16:35,    197,    0.0,   12.2,   0.00,   0.00, 1016.7,    0.7, -999.0
10-07-2023, 00:16:45,    197,    0.0,   12.2,   0.00,   0.00, 1016.7,    0.5, -999.0
10-07-2023, 00:16:54,    197,    0.0,   12.2,   0.00,   0.00, 1016.8,    0.6, -999.0
10-07-2023, 00:17:05,    197,    0.0,   12.2,   0.00,   0.00, 1016.7,    0.5, -999.0
10-07-2023, 00:17:15,    197,    0.0,   12.2,   0.00,   0.00, 1016.7,    0.4, -999.0
10-07-2023, 00:17:24,    196,    0.0,   12.1,   0.00,   0.00, 1016.7,    0.5, -999.0
10-07-2023, 00:17:34,    198,    0.0,   12.2,   0.00,   0.00, 1016.7,    0.4, -999.0
10-07-2023, 00:17:45,    197,    0.0,   12.1,   0.00,   0.00, 1016.7,    0.5, -999.0
10-07-2023, 00:17:55,    197,    0.0,   12.1,   0.00,   0.00, 1016.8,    0.4, -999.0
10-07-2023, 00:18:04,    197,    0.0,   12.2,   0.00,   0.00, 1016.7,    0.4, -999.0
10-07-2023, 00:18:14,    198,    0.0,   12.2,   0.00,   0.00, 1016.7,    0.5, -999.0
10-07-2023, 00:18:25,    197,    0.0,   12.2,   0.00,   0.00, 1016.7,    0.2, -999.0
10-07-2023, 00:18:34,    198,    0.0,   12.1,   0.00,   0.00, 1016.7,    0.4, -999.0
10-07-2023, 00:18:44,    197,    0.0,   12.2,   0.00,   0.00, 1016.7,    0.5, -999.0
10-07-2023, 00:18:54,    197,    0.0,   12.2,   0.00,   0.00, 1016.7,    0.7, -999.0
10-07-2023, 00:19:04,    197,    0.0,   12.2,   0.00,   0.00, 1016.7,    0.7, -999.0
10-07-2023, 00:19:14,    197,    0.0,   12.2,   0.00,   0.00, 1016.7,    0.5, -999.0
10-07-2023, 00:19:24,    197,    0.0,   12.2,   0.00,   0.00, 1016.8,    0.6, -999.0
10-07-2023, 00:19:34,    197,    0.0,   12.2,   0.00,   0.00, 1016.7,    0.3, -999.0
10-07-2023, 00:19:44,    197,    0.0,   12.2,   0.00,   0.00, 1016.7,    0.6, -999.0
10-07-2023, 00:19:54,    197,    0.0,   12.1,   0.00,   0.00, 1016.8,    0.5, -999.0
10-07-2023, 00:20:04,    197,    0.0,   12.2,   0.00,   0.00, 1016.8,    0.4, -999.0
10-07-2023, 00:20:14,    194,    0.0,   12.2,   0.00,   0.00, 1016.8,    0.6, -999.0
10-07-2023, 00:20:24,    197,    0.0,   12.2,   0.00,   0.00, 1016.8,    0.3, -999.0
10-07-2023, 00:20:34,    197,    0.0,   12.2,   0.00,   0.00, 1016.7,    0.5, -999.0
10-07-2023, 00:20:44,    195,    0.0,   12.2,   0.00,   0.00, 1016.7,    0.5, -999.0
10-07-2023, 00:20:54,    197,    0.0,   12.2,   0.00,   0.00, 1016.8,    0.4, -999.0
10-07-2023, 00:21:04,    197,    0.0,   12.1,   0.00,   0.00, 1016.7,    0.3, -999.0
10-07-2023, 00:21:14,    197,    0.0,   12.1,   0.00,   0.00, 1016.7,    0.7, -999.0
10-07-2023, 00:21:24,    197,    0.0,   12.0,   0.00,   0.00, 1016.7,    0.3, -999.0
10-07-2023, 00:21:34,    197,    0.0,   12.1,   0.00,   0.00, 1016.7,    0.5, -999.0
10-07-2023, 00:21:44,    197,    0.0,   12.1,   0.00,   0.00, 1016.8,    0.5, -999.0
10-07-2023, 00:21:54,    197,    0.0,   12.1,   0.00,   0.00, 1016.8,    0.6, -999.0
10-07-2023, 00:22:04,    196,    0.0,   12.1,   0.00,   0.00, 1016.8,    0.7, -999.0
10-07-2023, 00:22:14,    197,    0.0,   12.1,   0.00,   0.00, 1016.8,    0.5, -999.0
10-07-2023, 00:22:23,    198,    0.0,   12.1,   0.00,   0.00, 1016.8,    0.6, -999.0
10-07-2023, 00:22:34,    196,    0.0,   12.1,   0.00,   0.00, 1016.8,    0.4, -999.0
10-07-2023, 00:22:44,    197,    0.0,   12.1,   0.00,   0.00, 1016.8,    0.5, -999.0
10-07-2023, 00:22:53,    198,    0.0,   12.1,   0.00,   0.00, 1016.8,    0.6, -999.0
10-07-2023, 00:23:04,    197,    0.0,   12.1,   0.00,   0.00, 1016.7,    0.5, -999.0
10-07-2023, 00:23:14,    197,    0.0,   12.0,   0.00,   0.00, 1016.8,    0.6, -999.0
10-07-2023, 00:23:24,    197,    0.0,   12.2,   0.00,   0.00, 1016.8,    0.5, -999.0
10-07-2023, 00:23:33,    197,    0.0,   12.1,   0.00,   0.00, 1016.7,    0.5, -999.0
10-07-2023, 00:23:44,    197,    0.0,   12.1,   0.00,   0.00, 1016.7,    0.4, -999.0
10-07-2023, 00:23:54,    197,    0.0,   12.1,   0.00,   0.00, 1016.7,    0.7, -999.0
10-07-2023, 00:24:03,    197,    0.0,   12.1,   0.00,   0.00, 1016.8,    0.6, -999.0
10-07-2023, 00:24:13,    198,    0.0,   12.1,   0.00,   0.00, 1016.7,    0.8, -999.0
10-07-2023, 00:24:24,    197,    0.0,   12.1,   0.00,   0.00, 1016.8,    0.5, -999.0
10-07-2023, 00:24:33,    197,    0.0,   12.1,   0.00,   0.00, 1016.8,    0.6, -999.0
10-07-2023, 00:24:43,    197,    0.0,   12.0,   0.00,   0.00, 1016.8,    0.3, -999.0
10-07-2023, 00:24:53,    197,    0.0,   12.1,   0.00,   0.00, 1016.8,    0.7, -999.0
10-07-2023, 00:25:04,    197,    0.0,   12.1,   0.00,   0.00, 1016.8,    0.9, -999.0
10-07-2023, 00:25:13,    198,    0.0,   12.1,   0.00,   0.00, 1016.7,    0.4, -999.0
10-07-2023, 00:25:23,    198,    0.0,   12.0,   0.00,   0.00, 1016.8,    0.3, -999.0
10-07-2023, 00:25:33,    197,    0.0,   12.0,   0.00,   0.00, 1016.7,    0.5, -999.0
10-07-2023, 00:25:43,    197,    0.0,   12.1,   0.00,   0.00, 1016.7,    0.5, -999.0
10-07-2023, 00:25:53,    197,    0.0,   12.0,   0.00,   0.00, 1016.8,    0.8, -999.0
10-07-2023, 00:26:03,    197,    0.0,   12.0,   0.00,   0.00, 1016.7,    0.2, -999.0
10-07-2023, 00:26:13,    197,    0.0,   12.0,   0.00,   0.00, 1016.8,    0.4, -999.0
10-07-2023, 00:26:23,    197,    0.0,   12.0,   0.00,   0.00, 1016.7,    0.5, -999.0
10-07-2023, 00:26:33,    197,    0.0,   12.0,   0.00,   0.00, 1016.7,    0.5, -999.0
10-07-2023, 00:26:43,    197,    0.0,   12.0,   0.00,   0.00, 1016.7,    0.5, -999.0
10-07-2023, 00:26:53,    197,    0.0,   12.0,   0.00,   0.00, 1016.7,    0.6, -999.0
10-07-2023, 00:27:03,    197,    0.0,   12.0,   0.00,   0.00, 1016.7,    0.2, -999.0
10-07-2023, 00:27:13,    197,    0.1,   12.0,   0.00,   0.00, 1016.8,    0.5, -999.0
10-07-2023, 00:27:23,    197,    0.1,   12.1,   0.00,   0.00, 1016.8,    0.4, -999.0
10-07-2023, 00:27:33,    199,    0.3,   12.1,   0.00,   0.00, 1016.8,    0.6, -999.0
10-07-2023, 00:27:43,    198,    0.0,   12.0,   0.00,   0.00, 1016.8,    0.4, -999.0
10-07-2023, 00:27:53,    198,    0.0,   12.0,   0.00,   0.00, 1016.7,    0.6, -999.0
10-07-2023, 00:28:03,    198,    0.0,   12.1,   0.00,   0.00, 1016.7,    0.5, -999.0
10-07-2023, 00:28:13,    198,    0.0,   12.1,   0.00,   0.00, 1016.7,    0.3, -999.0
10-07-2023, 00:28:23,    198,    0.0,   11.9,   0.00,   0.00, 1016.8,    0.3, -999.0
10-07-2023, 00:28:33,    197,    0.0,   12.0,   0.00,   0.00, 1016.7,    0.5, -999.0
10-07-2023, 00:28:43,    198,    0.0,   12.0,   0.00,   0.00, 1016.8,    0.4, -999.0
10-07-2023, 00:28:53,    198,    0.0,   11.9,   0.00,   0.00, 1016.8,    0.5, -999.0
10-07-2023, 00:29:03,    197,    0.0,   12.0,   0.00,   0.00, 1016.7,    0.3, -999.0
10-07-2023, 00:29:13,    198,    0.0,   12.0,   0.00,   0.00, 1016.7,    0.3, -999.0
10-07-2023, 00:29:23,    198,    0.0,   12.0,   0.00,   0.00, 1016.8,    0.5, -999.0
10-07-2023, 00:29:32,    198,    0.0,   12.0,   0.00,   0.00, 1016.8,    0.2, -999.0
10-07-2023, 00:29:43,    198,    0.0,   12.1,   0.00,   0.00, 1016.8,    0.2, -999.0
10-07-2023, 00:29:53,    198,    0.0,   12.0,   0.00,   0.00, 1016.8,    0.7, -999.0
10-07-2023, 00:30:02,    198,    0.0,   12.0,   0.00,   0.00, 1016.8,    0.3, -999.0
10-07-2023, 00:30:12,    198,    0.0,   11.9,   0.00,   0.00, 1016.8,    0.3, -999.0
10-07-2023, 00:30:23,    198,    0.0,   12.0,   0.00,   0.00, 1016.8,    0.3, -999.0
10-07-2023, 00:30:32,    190,    0.4,   12.1,   0.00,   0.00, 1016.9,    0.8, -999.0
10-07-2023, 00:30:42,    190,    0.4,   12.1,   0.00,   0.00, 1016.9,    0.3, -999.0
10-07-2023, 00:30:53,    190,    0.0,   12.0,   0.00,   0.00, 1016.8,    0.4, -999.0
10-07-2023, 00:31:03,    190,    0.0,   12.0,   0.00,   0.00, 1016.8,    0.3, -999.0
10-07-2023, 00:31:12,    190,    0.1,   12.1,   0.00,   0.00, 1016.8,    0.4, -999.0
10-07-2023, 00:31:22,    190,    0.0,   12.0,   0.00,   0.00, 1016.8,    0.5, -999.0
10-07-2023, 00:31:33,    190,    0.0,   12.0,   0.00,   0.00, 1016.8,    0.7, -999.0
10-07-2023, 00:31:42,    190,    0.0,   12.0,   0.00,   0.00, 1016.9,    0.3, -999.0
10-07-2023, 00:31:52,    190,    0.3,   12.1,   0.00,   0.00, 1016.9,    0.3, -999.0
10-07-2023, 00:32:02,    190,    0.1,   12.0,   0.00,   0.00, 1016.9,    0.3, -999.0
10-07-2023, 00:32:12,    190,    0.1,   12.0,   0.00,   0.00, 1016.9,    0.2, -999.0
10-07-2023, 00:32:22,    190,    0.0,   11.9,   0.00,   0.00, 1016.8,    0.3, -999.0
10-07-2023, 00:32:32,    190,    0.0,   11.9,   0.00,   0.00, 1016.8,    0.5, -999.0
10-07-2023, 00:32:42,    194,    0.3,   12.0,   0.00,   0.00, 1016.9,    0.3, -999.0
10-07-2023, 00:32:52,    194,    0.0,   11.9,   0.00,   0.00, 1016.9,    0.7, -999.0
10-07-2023, 00:33:02,    193,    0.1,   12.0,   0.00,   0.00, 1016.9,    0.4, -999.0
10-07-2023, 00:33:12,    194,    0.0,   11.9,   0.00,   0.00, 1016.8,    0.5, -999.0
10-07-2023, 00:33:22,    194,    0.0,   11.9,   0.00,   0.00, 1016.8,    0.4, -999.0
10-07-2023, 00:33:32,    194,    0.0,   11.9,   0.00,   0.00, 1016.9,    0.6, -999.0
10-07-2023, 00:33:42,    194,    0.0,   11.9,   0.00,   0.00, 1016.8,    0.3, -999.0
10-07-2023, 00:33:52,    196,    0.0,   12.1,   0.00,   0.00, 1016.8,    0.8, -999.0
10-07-2023, 00:34:02,    194,    0.0,   11.9,   0.00,   0.00, 1016.8,    0.6, -999.0
10-07-2023, 00:34:12,    194,    0.0,   12.0,   0.00,   0.00, 1016.8,    0.6, -999.0
10-07-2023, 00:34:22,    194,    0.0,   11.9,   0.00,   0.00, 1016.8,    0.2, -999.0
10-07-2023, 00:34:32,    193,    0.2,   12.0,   0.00,   0.00, 1016.9,    0.5, -999.0
10-07-2023, 00:34:42,    192,    0.0,   11.9,   0.00,   0.00, 1016.8,    0.4, -999.0
10-07-2023, 00:34:52,    192,    0.0,   11.9,   0.00,   0.00, 1016.8,    0.7, -999.0
10-07-2023, 00:35:02,    192,    0.0,   12.0,   0.00,   0.00, 1016.9,    0.2, -999.0
10-07-2023, 00:35:12,    192,    0.0,   12.0,   0.00,   0.00, 1016.8,    0.5, -999.0
10-07-2023, 00:35:22,    192,    0.0,   12.0,   0.00,   0.00, 1016.8,    0.3, -999.0
10-07-2023, 00:35:32,    192,    0.0,   11.9,   0.00,   0.00, 1016.8,    0.3, -999.0
10-07-2023, 00:35:42,    193,    0.3,   12.0,   0.00,   0.00, 1016.9,    0.3, -999.0
10-07-2023, 00:35:52,    193,    0.6,   12.0,   0.00,   0.00, 1016.9,    0.5, -999.0
10-07-2023, 00:36:01,    193,    0.0,   12.0,   0.00,   0.00, 1016.8,    0.5, -999.0
10-07-2023, 00:36:12,    192,    0.0,   11.8,   0.00,   0.00, 1016.8,    0.6, -999.0
10-07-2023, 00:36:22,    193,    0.0,   11.9,   0.00,   0.00, 1016.8,    0.6, -999.0
10-07-2023, 00:36:32,    192,    0.0,   11.9,   0.00,   0.00, 1016.8,    0.3, -999.0
10-07-2023, 00:36:41,    193,    0.4,   11.9,   0.00,   0.00, 1016.9,    0.6, -999.0
10-07-2023, 00:36:52,    192,    0.1,   11.8,   0.00,   0.00, 1016.9,    0.3, -999.0
10-07-2023, 00:37:02,    192,    0.0,   11.9,   0.00,   0.00, 1016.8,    0.4, -999.0
10-07-2023, 00:37:11,    192,    0.0,   11.9,   0.00,   0.00, 1016.8,    0.4, -999.0
10-07-2023, 00:37:21,    192,    0.0,   11.9,   0.00,   0.00, 1016.8,    0.4, -999.0
10-07-2023, 00:37:32,    192,    0.1,   11.9,   0.00,   0.00, 1016.9,    0.5, -999.0
10-07-2023, 00:37:41,    192,    0.0,   11.9,   0.00,   0.00, 1016.8,    0.3, -999.0
10-07-2023, 00:37:51,    182,    1.4,   12.0,   0.00,   0.00, 1016.9,    0.6, -999.0
10-07-2023, 00:38:01,    162,    1.3,   12.0,   0.00,   0.00, 1016.9,    0.7, -999.0
10-07-2023, 00:38:11,    162,    0.2,   12.0,   0.00,   0.00, 1016.9,    0.4, -999.0
10-07-2023, 00:38:21,    162,    0.2,   11.9,   0.00,   0.00, 1016.8,    0.5, -999.0
10-07-2023, 00:38:31,    162,    0.3,   12.0,   0.00,   0.00, 1016.8,    0.9, -999.0
10-07-2023, 00:38:42,    162,    0.0,   11.9,   0.00,   0.00, 1016.9,    0.4, -999.0
10-07-2023, 00:38:51,    165,    0.0,   11.9,   0.00,   0.00, 1016.8,    0.4, -999.0
10-07-2023, 00:39:01,    165,    0.0,   11.8,   0.00,   0.00, 1016.8,    0.3, -999.0
10-07-2023, 00:39:11,    165,    0.1,   11.9,   0.00,   0.00, 1016.8,    0.5, -999.0
10-07-2023, 00:39:21,    165,    0.5,   12.0,   0.00,   0.00, 1016.9,    0.5, -999.0
10-07-2023, 00:39:31,    165,    0.6,   12.0,   0.00,   0.00, 1016.9,    0.6, -999.0
10-07-2023, 00:39:41,    165,    1.3,   12.0,   0.00,   0.00, 1016.9,    0.8, -999.0
10-07-2023, 00:39:51,    164,    0.4,   12.0,   0.00,   0.00, 1016.9,    0.4, -999.0
10-07-2023, 00:40:01,    164,    0.0,   11.8,   0.00,   0.00, 1016.8,    0.5, -999.0
10-07-2023, 00:40:11,    165,    0.0,   11.9,   0.00,   0.00, 1016.8,    0.5, -999.0
10-07-2023, 00:40:21,    164,    0.0,   11.9,   0.00,   0.00, 1016.8,    0.4, -999.0
10-07-2023, 00:40:31,    164,    0.0,   11.9,   0.00,   0.00, 1016.8,    0.5, -999.0
10-07-2023, 00:40:41,    164,    0.0,   11.9,   0.00,   0.00, 1016.8,    0.4, -999.0
10-07-2023, 00:40:51,    165,    0.0,   11.8,   0.00,   0.00, 1016.8,    0.5, -999.0
10-07-2023, 00:41:01,    164,    0.0,   11.9,   0.00,   0.00, 1016.8,    0.5, -999.0
10-07-2023, 00:41:11,    164,    0.0,   11.9,   0.00,   0.00, 1016.8,    0.4, -999.0
10-07-2023, 00:41:21,    167,    0.0,   11.9,   0.00,   0.00, 1016.8,    0.4, -999.0
10-07-2023, 00:41:31,    164,    0.0,   11.9,   0.00,   0.00, 1016.8,    0.6, -999.0
10-07-2023, 00:41:41,    164,    0.0,   11.9,   0.00,   0.00, 1016.8,    0.3, -999.0
10-07-2023, 00:41:51,    165,    0.1,   11.8,   0.00,   0.00, 1016.9,    0.4, -999.0
10-07-2023, 00:42:01,    165,    0.0,   11.9,   0.00,   0.00, 1016.8,    0.4, -999.0
10-07-2023, 00:42:11,    165,    0.0,   11.9,   0.00,   0.00, 1016.8,    0.6, -999.0
10-07-2023, 00:42:21,    164,    0.0,   11.8,   0.00,   0.00, 1016.8,    0.6, -999.0
10-07-2023, 00:42:31,    164,    0.0,   11.8,   0.00,   0.00, 1016.8,    0.6, -999.0
10-07-2023, 00:42:41,    165,    0.0,   11.8,   0.00,   0.00, 1016.8,    0.7, -999.0
10-07-2023, 00:42:51,    164,    0.0,   11.8,   0.00,   0.00, 1016.8,    0.5, -999.0
10-07-2023, 00:43:00,    164,    0.0,   11.9,   0.00,   0.00, 1016.9,    0.4, -999.0
10-07-2023, 00:43:11,    164,    0.0,   11.9,   0.00,   0.00, 1016.9,    0.7, -999.0
10-07-2023, 00:43:21,    162,    0.1,   11.9,   0.00,   0.00, 1016.9,    0.8, -999.0
10-07-2023, 00:43:30,    164,    0.0,   11.9,   0.00,   0.00, 1016.8,    0.4, -999.0
10-07-2023, 00:43:40,    164,    0.0,   11.9,   0.00,   0.00, 1016.8,    0.5, -999.0
10-07-2023, 00:43:51,    164,    0.0,   11.9,   0.00,   0.00, 1016.8,    0.6, -999.0
10-07-2023, 00:44:01,    164,    0.0,   11.9,   0.00,   0.00, 1016.8,    0.5, -999.0
10-07-2023, 00:44:10,    165,    0.1,   11.9,   0.00,   0.00, 1016.8,    0.5, -999.0
10-07-2023, 00:44:20,    165,    0.0,   11.9,   0.00,   0.00, 1016.8,    0.5, -999.0
10-07-2023, 00:44:31,    165,    0.0,   11.9,   0.00,   0.00, 1016.8,    0.6, -999.0
10-07-2023, 00:44:40,    165,    0.0,   11.8,   0.00,   0.00, 1016.8,    0.3, -999.0
10-07-2023, 00:44:50,    165,    0.0,   11.9,   0.00,   0.00, 1016.8,    0.5, -999.0
10-07-2023, 00:45:00,    165,    0.0,   11.7,   0.00,   0.00, 1016.8,    0.5, -999.0
10-07-2023, 00:45:10,    165,    0.0,   11.9,   0.00,   0.00, 1016.8,    0.5, -999.0
10-07-2023, 00:45:20,    165,    0.0,   11.8,   0.00,   0.00, 1016.8,    0.5, -999.0
10-07-2023, 00:45:30,    166,    0.0,   11.8,   0.00,   0.00, 1016.8,    0.4, -999.0
10-07-2023, 00:45:40,    167,    0.0,   11.9,   0.00,   0.00, 1016.8,    0.7, -999.0
10-07-2023, 00:45:50,    167,    0.0,   11.9,   0.00,   0.00, 1016.7,    0.4, -999.0
10-07-2023, 00:46:00,    167,    0.0,   11.8,   0.00,   0.00, 1016.8,    0.7, -999.0
10-07-2023, 00:46:10,    167,    0.0,   11.9,   0.00,   0.00, 1016.7,    0.4, -999.0
10-07-2023, 00:46:20,    167,    0.1,   11.9,   0.00,   0.00, 1016.8,    0.5, -999.0
10-07-2023, 00:46:30,    167,    0.5,   11.9,   0.00,   0.00, 1016.9,    0.8, -999.0
10-07-2023, 00:46:40,    166,    0.0,   11.9,   0.00,   0.00, 1016.8,    0.3, -999.0
10-07-2023, 00:46:50,    166,    0.2,   11.9,   0.00,   0.00, 1016.8,    0.3, -999.0